Regional Weather Roundup
Issued by NWS Sioux Falls, SD

Home | Current Version | Previous Version | Graphics & Text | Print | Product List | Glossary Off
Versions: 1 2 3 4 5 6 7 8 9 10 11 12 13 14 15 16 17 18 19 20 21 22 23 24 25 26 27 28 29 30 31 32 33 34 35 36 37 38 39 40 41 42 43 44 45 46 47 48 49 50

000
ASUS43 KFSD 022210
RWRFSD

WEATHER ROUNDUP FOR SE SOUTH DAKOTA/SW MINNESOTA/NW IOWA
NATIONAL WEATHER SERVICE SIOUX FALLS SD
400 PM CST MON MAR 02 2015

NOTE: "FAIR" INDICATES FEW OR NO CLOUDS BELOW 12,000 FEET WITH NO
SIGNIFICANT WEATHER AND OR OBSTRUCTIONS TO VISIBILITY.


SDZ038>040-050-052>070-022300-
SOUTHEAST SOUTH DAKOTA

CITY           SKY/WX    TMP DP  RH WIND       PRES   REMARKS
CHAMBERLAIN    MOSUNNY   42  14  31 S25G33    29.92F
HURON          CLOUDY    34  17  50 SE15G28   30.00F WCI  24
MADISON        CLOUDY    27  19  74 S20       30.06F WCI  13
MITCHELL       CLOUDY    37  18  46 S21G31    30.03F
SIOUX FALLS    CLOUDY    30  17  58 SE14G25   30.11F WCI  19
WINNER         FAIR      43  10  26 S24G31    29.89F
YANKTON        CLOUDY    37  18  44 SE14G21   30.09F
$$

MNZ071-072-080-081-089-090-097-098-022300-
SOUTHWEST MINNESOTA

CITY           SKY/WX    TMP DP  RH WIND       PRES   REMARKS
FAIRMONT       CLOUDY    25  16  68 SE13      30.24F WCI  13
JACKSON        CLOUDY    27  19  74 SE14      30.20F WCI  15
LUVERNE        CLOUDY    30  19  64 S13G24    30.14F WCI  20
MARSHALL       CLOUDY    27  16  63 S16       30.16F WCI  14
MONTEVIDEO     MOSUNNY   28  18  64 S17       30.16F WCI  16
PIPESTONE      CLOUDY    27  18  69 S15       30.11F WCI  15
REDWOOD FALLS  CLOUDY    26  15  63 S20       30.21F WCI  12
TRACY          CLOUDY    27  18  68 S13G20    30.16F WCI  16
WINDOM         PTSUNNY   25  18  74 SE15      30.20F WCI  12
WORTHINGTON    CLOUDY    25  16  68 SE13      30.18F WCI  13
$$

IAZ001>003-012>014-020>022-031-032-NEZ013-014-SDZ071-022300-
NORTHWEST IOWA

CITY           SKY/WX    TMP DP  RH WIND       PRES   REMARKS
CHEROKEE       CLOUDY    31  20  64 SE14G21   30.20F WCI  20
DENISON        CLOUDY    32  21  64 SE13G21   30.19F WCI  22
ESTHERVILLE    CLOUDY    25  18  74 S17       30.22F WCI  12
LE MARS        CLOUDY    34  21  60 SE16G22   30.17F WCI  23
ORANGE CITY    CLOUDY    32  18  55 S16       30.16F WCI  21
SHELDON        CLOUDY    28  18  64 S21       30.15F WCI  15
SIOUX CITY     CLOUDY    35  22  58 SE16      30.16F WCI  25
SPENCER        CLOUDY    28  18  66 SE15      30.20F WCI  16
STORM LAKE     CLOUDY    28  21  74 SE18      30.20F WCI  16
$$

ABBREVIATIONS USED IN REMARKS
   TC - TEMPERATURE IN CELSIUS
  WCI - WIND CHILL INDEX
   HX - HEAT INDEX
  VSB - VISIBILITY




USA.gov is the U.S. government's official web portal to all federal, state and local government web resources and services.